[[[{"header":{"parameterUnit":"kt","parameterCategory":2,"dx":1,"dy":1,"la1":30.253999710083008,"la2":30.299108505249023,"lo1":-89.0895004272461,"lo2":-89.04439544677734,"nx":28,"ny":28,"refTime":"2022-09-20T09:00:00:Z","depth":"0","parameterNumber":2,"parameterNumberName":"U-component_of_CURRENTS"},"data":[-0.156,-0.1586,-0.1575,-0.1609,-0.1623,-0.16,-0.1571,-0.1481,-0.1428,-0.1393,-0.1447,-0.1452,-0.1694,-0.2186,-0.2342,-0.2269,-0.2149,-0.2133,-0.1958,-0.2008,-0.1984,-0.1962,-0.1995,-0.2179,-0.2179,-0.2035,-0.2034,-0.2033,-0.1509,-0.1501,-0.154,-0.1591,-0.1615,-0.163,-0.164,-0.1594,-0.1562,-0.1542,-0.1499,-0.1641,-0.1737,-0.1849,-0.2096,-0.2075,-0.2025,-0.1973,-0.1992,-0.1913,-0.1915,-0.1955,-0.2133,-0.2133,-0.2133,-0.2133,-0.2133,-0.2133,-0.1418,-0.1448,-0.1468,-0.153,-0.1578,-0.1607,-0.1618,-0.1642,-0.1657,-0.1615,-0.1655,-0.1594,-0.1715,-0.1659,-0.1651,-0.179,-0.162,-0.1766,-0.1703,-0.1679,-0.1653,-0.1681,-0.1728,-0.1727,-0.1725,-0.1724,-0.1723,0,-0.1361,-0.1357,-0.1404,-0.1462,-0.1524,-0.1581,-0.1646,-0.166,-0.1692,-0.1697,-0.1692,-0.1654,-0.1622,-0.1619,-0.1544,-0.1487,-0.1464,-0.1465,-0.1477,-0.1625,-0.1676,-0.1602,-0.154,-0.1588,-0.1586,-0.1584,-0.1583,-0.1582,-0.1278,-0.1308,-0.1376,-0.1416,-0.1461,-0.1543,-0.159,-0.1634,-0.1657,-0.1681,-0.1685,-0.1644,-0.16,-0.1472,-0.1445,-0.135,-0.1267,-0.1408,-0.1413,-0.1488,-0.1423,-0.1409,-0.1361,-0.1555,-0.1558,-0.1561,-0.1563,0,-0.1234,-0.125,-0.1332,-0.1405,-0.1438,-0.1505,-0.1583,-0.1619,-0.1636,-0.166,-0.1657,-0.1646,-0.1571,-0.1475,-0.134,-0.1321,-0.1248,-0.1204,-0.1374,-0.1371,-0.1442,-0.1401,-0.1418,-0.1366,-0.1252,-0.1253,-0.1254,0,-0.1178,-0.1244,-0.128,-0.1323,-0.1418,-0.1464,-0.1545,-0.1592,-0.1612,-0.1634,-0.1614,-0.1609,-0.1507,-0.1443,-0.1354,-0.1284,-0.1239,-0.1224,-0.12,-0.1306,-0.1321,-0.1306,-0.1264,-0.1124,-0.1124,-0.1124,-0.1124,0,-0.1102,-0.1199,-0.126,-0.1295,-0.1386,-0.1439,-0.1494,-0.1547,-0.158,-0.1591,-0.1589,-0.155,-0.1518,-0.1429,-0.1335,-0.1327,-0.1222,-0.1189,-0.1196,-0.1201,-0.1255,-0.1266,-0.1349,-0.1123,-0.1123,-0.1123,-0.1123,0,-0.1064,-0.1099,-0.1192,-0.1272,-0.1301,-0.1375,-0.1462,-0.1526,-0.1554,-0.156,-0.1545,-0.1512,-0.1475,-0.1424,-0.1335,-0.1344,-0.1287,-0.1227,-0.1224,-0.1222,-0.1187,-0.1305,-0.1389,-0.1422,-0.1205,-0.1205,-0.1205,0,-0.0975,-0.1054,-0.1071,-0.1188,-0.1246,-0.1282,-0.1356,-0.1411,-0.1442,-0.1476,-0.1435,-0.1445,-0.1417,-0.1398,-0.1356,-0.1281,-0.1259,-0.1275,-0.1144,-0.1142,-0.1183,-0.1241,-0.1365,-0.1388,-0.121,-0.121,-0.1209,0,-0.09,-0.0947,-0.0963,-0.1,-0.1078,-0.1138,-0.1222,-0.1296,-0.1327,-0.1371,-0.1397,-0.1412,-0.1369,-0.1355,-0.1317,-0.1268,-0.127,-0.1217,-0.1211,-0.1225,-0.119,-0.1243,-0.1245,-0.1205,-0.1204,-0.1203,-0.1213,0,-0.0838,-0.0874,-0.0908,-0.0961,-0.1017,-0.1087,-0.1139,-0.1193,-0.1214,-0.1238,-0.1269,-0.1262,-0.1258,-0.1253,-0.124,-0.1226,-0.1215,-0.116,-0.1096,-0.1138,-0.1141,-0.1139,-0.1138,-0.1136,-0.1134,-0.1133,0,0,-0.0757,-0.0792,-0.0792,-0.0844,-0.0891,-0.0912,-0.0984,-0.1032,-0.1109,-0.1124,-0.1118,-0.1144,-0.1131,-0.1141,-0.1167,-0.1165,-0.1138,-0.113,-0.1127,-0.1127,-0.1127,-0.1132,-0.1131,-0.113,-0.1129,-0.1128,-0.1128,0,-0.0728,-0.0726,-0.0756,-0.0803,-0.086,-0.0897,-0.0914,-0.0984,-0.1009,-0.1085,-0.1057,-0.1061,-0.1098,-0.1081,-0.1073,-0.1143,-0.1073,-0.1133,-0.117,-0.1115,-0.1117,-0.1119,-0.1125,-0.1126,-0.1124,-0.1124,-0.1124,0,-0.0672,-0.0681,-0.0693,-0.0747,-0.0791,-0.0859,-0.0838,-0.0903,-0.0958,-0.0918,-0.0995,-0.0986,-0.0965,-0.1006,-0.1014,-0.0979,-0.1006,-0.1007,-0.1015,-0.1004,-0.0942,-0.0946,-0.095,-0.0902,-0.0902,-0.0902,0,0,-0.0649,-0.0659,-0.0707,-0.0746,-0.0771,-0.0819,-0.0857,-0.0875,-0.0915,-0.093,-0.094,-0.0934,-0.0945,-0.0942,-0.0956,-0.0986,-0.0944,-0.0984,-0.0994,-0.1003,-0.0998,-0.0939,-0.0943,-0.09,-0.09,-0.09,0,0,-0.0649,-0.067,-0.0664,-0.0704,-0.0764,-0.0831,-0.0873,-0.0881,-0.0922,-0.0909,-0.0891,-0.089,-0.0927,-0.0898,-0.0887,-0.0916,-0.0867,-0.087,-0.0945,-0.0958,-0.0968,-0.0962,-0.0823,0,0,0,0,0,-0.0635,-0.0664,-0.0659,-0.0669,-0.0743,-0.083,-0.0845,-0.0873,-0.0849,-0.0887,-0.0893,-0.0846,-0.0888,-0.0878,-0.0879,-0.0892,-0.0883,-0.0886,-0.0889,-0.0994,-0.1007,-0.1018,0,0,0,0,0,0,-0.0639,-0.065,-0.0659,-0.0719,-0.0737,-0.0827,-0.0796,-0.0806,-0.0845,-0.0844,-0.0851,-0.0846,-0.0834,-0.0874,-0.0876,-0.0889,-0.0822,-0.0885,-0.0887,-0.0889,-0.0998,-0.1009,-0.1018,0,0,0,0,0,-0.0643,-0.0652,-0.075,-0.072,-0.0736,-0.0785,-0.0794,-0.0802,-0.0834,-0.0832,-0.0831,-0.085,-0.0836,-0.0835,-0.0875,-0.0889,-0.0821,-0.0821,-0.0886,-0.0888,-0.089,-0.1004,0,0,0,0,0,0,-0.0646,-0.0672,-0.0755,-0.0763,-0.0696,-0.0782,-0.0791,-0.0798,-0.0818,-0.082,-0.0828,-0.0826,-0.0838,-0.0837,-0.0836,-0.0891,-0.0819,-0.082,-0.0821,-0.0888,-0.0889,-0.0891,0,0,0,0,0,0,-0.0668,-0.0678,-0.0759,-0.0726,-0.0731,-0.0779,-0.0787,-0.0801,-0.0814,-0.0811,-0.0812,-0.0826,-0.0805,-0.0838,-0.0838,-0.0864,-0.0818,-0.0819,-0.082,-0.082,-0.0889,-0.089,0,0,0,0,0,0,-0.0674,-0.0683,-0.0724,-0.0728,-0.0732,-0.0825,-0.079,-0.0842,-0.0852,-0.0807,-0.0846,-0.0844,-0.0804,-0.0806,-0.0839,-0.0866,-0.0865,-0.0818,-0.0819,-0.0819,-0.082,0,0,0,0,0,0,0,-0.0679,-0.0599,-0.0706,-0.0729,-0.0732,-0.0838,-0.084,-0.0842,-0.0851,-0.0849,-0.0847,-0.0845,-0.0814,-0.0815,-0.0816,-0.0868,0,0,-0.0818,-0.0819,0,0,0,0,0,0,0,0,-0.0597,-0.0598,-0.0706,-0.0708,-0.071,-0.0838,-0.084,-0.0842,-0.0851,-0.0849,-0.0847,-0.0846,-0.0814,-0.0815,-0.0816,0,0,0,0,0,0,0,0,0,0,0,0,0,0,0,-0.0707,-0.0708,0,-0.0838,-0.084,-0.0842,-0.0851,-0.0849,-0.0848,-0.0846,-0.0814,-0.0815,-0.0816,0,0,0,0,0,0,0,0,0,0,0,0,0,0,0,0,0,0,0,0,0,0,0,0,0,0,0,0,0,0,0,0,0,0,0,0,0,0,0,0,0,0,0,0,0,0,0,0,0,0,0,0,0,0,0,0,0,0,0,0,0,0,0,0,0,0,0,0,0]}],[{"header":{"parameterUnit":"kt","parameterCategory":2,"dx":1,"dy":1,"la1":30.253999710083008,"la2":30.299108505249023,"lo1":-89.0895004272461,"lo2":-89.04439544677734,"nx":28,"ny":28,"refTime":"2022-09-20T09:00:00:Z","depth":"0","parameterNumber":3,"parameterNumberName":"V-component_of_CURRENTS"},"data":[-0.4604,-0.4693,-0.4726,-0.4678,-0.4638,-0.4466,-0.4343,-0.4122,-0.3926,-0.3423,-0.3057,-0.2818,-0.153,0.0288,0.1584,0.1755,0.2236,0.218,0.235,0.1835,0.1736,0.1642,0.1716,0.2597,0.2599,0.3375,0.3383,0.339,-0.4565,-0.4608,-0.4669,-0.47,-0.4657,-0.4637,-0.4493,-0.4336,-0.4098,-0.3846,-0.3561,-0.285,-0.2024,-0.1219,-0.0058,0.0491,0.0627,0.083,0.102,0.1143,0.0143,0.0169,0.0735,0.0735,0.0734,0.0734,0.0733,0.0733,-0.4484,-0.4544,-0.4624,-0.468,-0.4679,-0.4605,-0.4529,-0.4416,-0.4221,-0.3873,-0.3674,-0.33,-0.2556,-0.1884,-0.1501,-0.0604,-0.0814,-0.0388,-0.0241,-0.028,-0.0046,-0.1342,-0.0956,-0.0959,-0.0961,-0.0963,-0.0965,0,-0.444,-0.4475,-0.4542,-0.4614,-0.4642,-0.4606,-0.4564,-0.4485,-0.425,-0.4062,-0.3713,-0.346,-0.285,-0.2343,-0.1889,-0.1626,-0.1138,-0.1397,-0.0936,-0.0479,-0.05,-0.0259,-0.1569,-0.1191,-0.1195,-0.1198,-0.1201,-0.1203,-0.4349,-0.4419,-0.4506,-0.4538,-0.4583,-0.4592,-0.457,-0.4448,-0.4333,-0.3973,-0.3852,-0.3444,-0.3151,-0.2545,-0.2186,-0.183,-0.1549,-0.1494,-0.1589,-0.1216,-0.1009,-0.1019,-0.085,-0.1249,-0.1243,-0.1238,-0.1234,0,-0.4293,-0.4343,-0.4436,-0.4495,-0.4513,-0.4538,-0.447,-0.4399,-0.4246,-0.4025,-0.3948,-0.3614,-0.3226,-0.2923,-0.2472,-0.2361,-0.1784,-0.1951,-0.1841,-0.1768,-0.1321,-0.1185,-0.0664,-0.0418,-0.1777,-0.1775,-0.1773,0,-0.4219,-0.4285,-0.4356,-0.4412,-0.4462,-0.4444,-0.4413,-0.4361,-0.4187,-0.4021,-0.3861,-0.366,-0.3329,-0.3029,-0.2837,-0.247,-0.2407,-0.2308,-0.224,-0.209,-0.2082,-0.1581,-0.1423,-0.2218,-0.2221,-0.2222,-0.2224,0,-0.4123,-0.4228,-0.4311,-0.4332,-0.4368,-0.439,-0.4376,-0.4258,-0.4173,-0.3975,-0.3868,-0.3605,-0.3406,-0.318,-0.2877,-0.2942,-0.2454,-0.2488,-0.2338,-0.2338,-0.204,-0.2024,-0.1393,-0.2227,-0.2227,-0.2228,-0.2229,0,-0.4064,-0.4133,-0.4247,-0.4277,-0.4296,-0.4332,-0.4277,-0.4249,-0.408,-0.3999,-0.3822,-0.3678,-0.3434,-0.3418,-0.3026,-0.3137,-0.2972,-0.2814,-0.2798,-0.2717,-0.2703,-0.2331,-0.2153,-0.1701,-0.266,-0.2664,-0.2667,0,-0.3932,-0.4074,-0.4098,-0.4185,-0.4247,-0.4208,-0.4203,-0.415,-0.4074,-0.3977,-0.3785,-0.3644,-0.3602,-0.3509,-0.3367,-0.3127,-0.3006,-0.3164,-0.2777,-0.2766,-0.2793,-0.2685,-0.2478,-0.2227,-0.2716,-0.2711,-0.2708,0,-0.3842,-0.3963,-0.3979,-0.4012,-0.4048,-0.4083,-0.4088,-0.4058,-0.401,-0.396,-0.3861,-0.3694,-0.3595,-0.3495,-0.3376,-0.3234,-0.3086,-0.3187,-0.3175,-0.3118,-0.276,-0.2756,-0.2722,-0.3018,-0.3012,-0.3008,-0.2746,0,-0.3767,-0.3838,-0.3891,-0.3966,-0.3989,-0.4041,-0.4027,-0.4032,-0.4,-0.3944,-0.3813,-0.3698,-0.3547,-0.3483,-0.3434,-0.325,-0.3233,-0.3183,-0.315,-0.3108,-0.3003,-0.2973,-0.3293,-0.3291,-0.3289,-0.3288,0,0,-0.3627,-0.3743,-0.3773,-0.3844,-0.3863,-0.3847,-0.3904,-0.3895,-0.3899,-0.3856,-0.3861,-0.3645,-0.3554,-0.3381,-0.337,-0.3334,-0.3251,-0.3319,-0.3143,-0.3128,-0.3113,-0.3011,-0.2984,-0.3284,-0.3284,-0.3283,-0.3283,0,-0.3616,-0.366,-0.3745,-0.3774,-0.3822,-0.3823,-0.3839,-0.3866,-0.3847,-0.3851,-0.3746,-0.3644,-0.3566,-0.3435,-0.3356,-0.333,-0.3209,-0.3283,-0.3305,-0.3134,-0.3122,-0.311,-0.3008,-0.2986,-0.3278,-0.3278,-0.3279,0,-0.3533,-0.3582,-0.3624,-0.3704,-0.3729,-0.3775,-0.3738,-0.3785,-0.3791,-0.3708,-0.3707,-0.3619,-0.3485,-0.3418,-0.3376,-0.3358,-0.3178,-0.3259,-0.3264,-0.3245,-0.3065,-0.3052,-0.304,-0.3194,-0.3195,-0.3195,0,0,-0.3511,-0.3585,-0.3627,-0.3699,-0.3724,-0.3731,-0.3751,-0.3743,-0.3737,-0.3729,-0.3679,-0.3587,-0.3493,-0.3451,-0.3376,-0.333,-0.3229,-0.3257,-0.3261,-0.3265,-0.325,-0.3072,-0.3059,-0.3198,-0.3198,-0.3198,0,0,-0.3491,-0.3566,-0.3562,-0.3655,-0.3684,-0.3707,-0.3742,-0.3724,-0.371,-0.3694,-0.3608,-0.3588,-0.3524,-0.3456,-0.35,-0.3327,-0.3297,-0.3289,-0.3403,-0.3406,-0.3409,-0.3413,-0.3399,0,0,0,0,0,-0.3489,-0.3563,-0.356,-0.3578,-0.3658,-0.3714,-0.372,-0.371,-0.3679,-0.3704,-0.3653,-0.3578,-0.3441,-0.3481,-0.3464,-0.3408,-0.3226,-0.3221,-0.3216,-0.3349,-0.3353,-0.3357,0,0,0,0,0,0,-0.3497,-0.3521,-0.3557,-0.3589,-0.3606,-0.3712,-0.3659,-0.3657,-0.3676,-0.367,-0.3595,-0.3576,-0.3515,-0.3482,-0.3469,-0.3417,-0.3404,-0.3224,-0.322,-0.3216,-0.335,-0.3354,-0.3357,0,0,0,0,0,-0.3503,-0.3522,-0.366,-0.3586,-0.3601,-0.3607,-0.3656,-0.3654,-0.3664,-0.3591,-0.3574,-0.3656,-0.3518,-0.35,-0.3474,-0.3424,-0.3412,-0.3408,-0.3221,-0.3218,-0.3215,-0.3352,0,0,0,0,0,0,-0.3507,-0.3506,-0.3662,-0.3665,-0.3564,-0.36,-0.3608,-0.3652,-0.358,-0.3569,-0.3645,-0.364,-0.352,-0.3506,-0.3492,-0.343,-0.342,-0.3415,-0.3412,-0.3219,-0.3216,-0.3214,0,0,0,0,0,0,-0.3496,-0.3509,-0.3663,-0.3636,-0.3635,-0.3593,-0.3601,-0.3559,-0.3574,-0.3634,-0.3631,-0.3643,-0.35,-0.351,-0.3499,-0.3438,-0.3425,-0.342,-0.3417,-0.3415,-0.3216,-0.3214,0,0,0,0,0,0,-0.3501,-0.3512,-0.3635,-0.3634,-0.3634,-0.3662,-0.3549,-0.3604,-0.3641,-0.3634,-0.3635,-0.3632,-0.3503,-0.3494,-0.3505,-0.3449,-0.3441,-0.3425,-0.3422,-0.342,-0.3418,0,0,0,0,0,0,0,-0.3505,-0.3441,-0.365,-0.3633,-0.3632,-0.3692,-0.3693,-0.3693,-0.3641,-0.3638,-0.3636,-0.3634,-0.3451,-0.3446,-0.3441,-0.3458,0,0,-0.3425,-0.3423,0,0,0,0,0,0,0,0,-0.3435,-0.3439,-0.365,-0.3651,-0.3652,-0.3692,-0.3693,-0.3693,-0.364,-0.3638,-0.3636,-0.3635,-0.345,-0.3446,-0.3442,0,0,0,0,0,0,0,0,0,0,0,0,0,0,0,-0.365,-0.3651,0,-0.3692,-0.3693,-0.3693,-0.364,-0.3638,-0.3637,-0.3635,-0.3449,-0.3446,-0.3442,0,0,0,0,0,0,0,0,0,0,0,0,0,0,0,0,0,0,0,0,0,0,0,0,0,0,0,0,0,0,0,0,0,0,0,0,0,0,0,0,0,0,0,0,0,0,0,0,0,0,0,0,0,0,0,0,0,0,0,0,0,0,0,0,0,0,0,0,0]}]],[[{"header":{"parameterUnit":"kt","parameterCategory":2,"dx":1,"dy":1,"la1":30.253999710083008,"la2":30.299108505249023,"lo1":-89.0895004272461,"lo2":-89.04439544677734,"nx":28,"ny":28,"refTime":"2022-09-20T09:00:00:Z","depth":"2","parameterNumber":2,"parameterNumberName":"U-component_of_CURRENTS"},"data":[-0.1315,-0.131,-0.1317,-0.1321,-0.131,-0.1242,-0.1181,-0.115,-0.1335,-0.1615,-0.1839,-0.2246,-0.2044,-0.1782,-0.1511,-0.1183,-0.1074,-0.1093,-0.1334,-0.1221,-0.1222,-0.0969,-0.101,0,0,0,0,0,-0.1333,-0.1344,-0.1359,-0.1329,-0.133,-0.1288,-0.1238,-0.1185,-0.1229,-0.1563,-0.1741,-0.1787,-0.18,-0.1641,-0.1342,-0.1235,-0.1133,-0.1026,-0.0897,-0.0897,-0.0897,-0.0919,-0.0899,-0.0897,-0.0896,-0.0895,0,0,-0.1353,-0.1356,-0.135,-0.1332,-0.132,-0.1284,-0.1228,-0.1238,-0.127,-0.1392,-0.1497,-0.1657,-0.1661,-0.1705,-0.1498,-0.1229,-0.1312,-0.1109,-0.1102,-0.1096,-0.1135,-0.1157,-0.1169,-0.117,-0.1171,-0.1171,-0.1172,0,-0.134,-0.1335,-0.1323,-0.1314,-0.1288,-0.1251,-0.1215,-0.1217,-0.1202,-0.1272,-0.1357,-0.1434,-0.1494,-0.1483,-0.1426,-0.1323,-0.1078,-0.1075,-0.109,-0.0964,-0.0977,-0.0967,-0.0968,-0.0951,-0.0951,-0.0951,-0.095,-0.095,-0.1299,-0.1311,-0.1276,-0.1269,-0.1251,-0.122,-0.1206,-0.1171,-0.1171,-0.1228,-0.1246,-0.129,-0.1365,-0.1321,-0.1293,-0.123,-0.1114,-0.1057,-0.1064,-0.11,-0.1091,-0.109,-0.1089,-0.0946,-0.0947,-0.0947,-0.0948,0,-0.127,-0.1258,-0.1247,-0.1217,-0.1206,-0.1198,-0.1158,-0.1161,-0.1172,-0.1201,-0.1204,-0.1242,-0.1248,-0.1196,-0.1118,-0.1095,-0.1041,-0.1032,-0.0968,-0.0959,-0.1072,-0.1075,-0.1086,-0.1089,-0.1091,-0.1094,-0.1096,0,-0.1223,-0.1213,-0.1188,-0.1188,-0.1185,-0.1158,-0.116,-0.1163,-0.1166,-0.1191,-0.1191,-0.1213,-0.1164,-0.114,-0.1068,-0.1056,-0.1005,-0.1038,-0.1031,-0.0965,-0.0968,-0.0924,-0.0924,-0.0935,-0.0936,-0.0936,-0.0937,0,-0.1179,-0.1166,-0.1176,-0.1169,-0.1151,-0.1151,-0.1136,-0.1156,-0.1167,-0.1175,-0.1186,-0.1172,-0.1169,-0.1109,-0.1063,-0.1056,-0.1002,-0.0987,-0.1024,-0.1029,-0.0942,-0.0942,-0.0937,-0.0937,-0.0937,-0.0937,-0.0938,0,-0.1141,-0.1137,-0.1155,-0.1122,-0.1119,-0.1127,-0.1132,-0.1146,-0.1168,-0.1168,-0.1165,-0.1153,-0.115,-0.1117,-0.1074,-0.1083,-0.1035,-0.1004,-0.1001,-0.1065,-0.1053,-0.0937,-0.0971,-0.0959,-0.0959,-0.096,-0.096,0,-0.1083,-0.1108,-0.1103,-0.1108,-0.1104,-0.1088,-0.1112,-0.1124,-0.1127,-0.1137,-0.1129,-0.1127,-0.111,-0.1094,-0.1085,-0.1051,-0.1033,-0.1055,-0.0965,-0.0962,-0.1033,-0.1089,-0.102,-0.0977,-0.0965,-0.0965,-0.0965,0,-0.1049,-0.1049,-0.105,-0.1036,-0.1036,-0.1044,-0.1068,-0.1085,-0.1091,-0.1091,-0.1097,-0.1104,-0.108,-0.1075,-0.1061,-0.1049,-0.104,-0.1014,-0.1012,-0.098,-0.0987,-0.1083,-0.1088,-0.1023,-0.1022,-0.1022,-0.0969,0,-0.0987,-0.0994,-0.1009,-0.1019,-0.1025,-0.1034,-0.1034,-0.1043,-0.1025,-0.1027,-0.1034,-0.1021,-0.101,-0.1018,-0.1005,-0.1015,-0.0989,-0.0977,-0.094,-0.0977,-0.095,-0.0947,-0.0966,-0.0965,-0.0964,-0.0963,0,0,-0.0926,-0.0958,-0.096,-0.0976,-0.0973,-0.0955,-0.0966,-0.0977,-0.0975,-0.0978,-0.0954,-0.0946,-0.0935,-0.0953,-0.0968,-0.097,-0.0943,-0.0945,-0.0969,-0.097,-0.097,-0.0946,-0.0944,-0.0962,-0.0961,-0.0961,-0.0961,0,-0.0912,-0.0919,-0.0946,-0.095,-0.095,-0.0947,-0.0948,-0.0943,-0.0938,-0.095,-0.0918,-0.0915,-0.0911,-0.0908,-0.0905,-0.0956,-0.0902,-0.0953,-0.098,-0.0962,-0.0964,-0.0966,-0.0943,-0.0942,-0.0958,-0.0959,-0.0959,0,-0.0867,-0.0877,-0.0891,-0.0916,-0.0912,-0.0924,-0.0895,-0.0903,-0.0913,-0.0869,-0.0872,-0.0857,-0.0843,-0.0859,-0.0861,-0.0845,-0.0863,-0.0868,-0.0873,-0.086,-0.0839,-0.0842,-0.0845,-0.08,-0.08,-0.08,0,0,-0.085,-0.0876,-0.088,-0.0911,-0.091,-0.0898,-0.0902,-0.0887,-0.088,-0.0873,-0.0852,-0.0834,-0.0832,-0.0826,-0.0822,-0.0841,-0.0812,-0.085,-0.0857,-0.0863,-0.0854,-0.0834,-0.0838,-0.0798,-0.0798,-0.0798,0,0,-0.0839,-0.085,-0.0839,-0.0875,-0.0883,-0.0883,-0.089,-0.0874,-0.0866,-0.0846,-0.0814,-0.0807,-0.0812,-0.0799,-0.0781,-0.0807,-0.0775,-0.0779,-0.0814,-0.0823,-0.083,-0.0818,-0.0733,0,0,0,0,0,-0.0819,-0.0853,-0.0842,-0.0847,-0.0867,-0.0892,-0.0893,-0.0871,-0.0837,-0.0851,-0.0825,-0.0791,-0.0786,-0.0769,-0.0767,-0.078,-0.0776,-0.078,-0.0784,-0.0833,-0.0842,-0.0851,0,0,0,0,0,0,-0.0821,-0.0828,-0.0841,-0.0844,-0.0848,-0.0891,-0.0846,-0.0841,-0.0835,-0.0829,-0.0798,-0.079,-0.0768,-0.0768,-0.0766,-0.078,-0.0733,-0.0778,-0.0781,-0.0784,-0.0836,-0.0844,-0.0851,0,0,0,0,0,-0.0822,-0.0828,-0.0867,-0.0843,-0.0846,-0.0827,-0.0844,-0.084,-0.0831,-0.0805,-0.0797,-0.0811,-0.077,-0.0765,-0.0767,-0.0782,-0.0735,-0.0734,-0.078,-0.0782,-0.0785,-0.084,0,0,0,0,0,0,-0.0823,-0.0823,-0.0867,-0.0866,-0.0824,-0.0824,-0.0823,-0.0838,-0.0806,-0.0799,-0.0817,-0.0813,-0.0772,-0.0768,-0.0764,-0.0784,-0.0735,-0.0735,-0.0734,-0.0782,-0.0784,-0.0786,0,0,0,0,0,0,-0.082,-0.0823,-0.0866,-0.0843,-0.084,-0.0821,-0.0821,-0.0822,-0.0805,-0.0819,-0.0815,-0.0815,-0.0764,-0.077,-0.0767,-0.0771,-0.0736,-0.0735,-0.0735,-0.0735,-0.0783,-0.0785,0,0,0,0,0,0,-0.0821,-0.0824,-0.0843,-0.0841,-0.0838,-0.0835,-0.0819,-0.0833,-0.0811,-0.082,-0.0805,-0.0803,-0.0767,-0.0764,-0.0769,-0.0775,-0.0772,-0.0736,-0.0736,-0.0735,-0.0735,0,0,0,0,0,0,0,-0.0821,-0.0808,-0.0867,-0.0839,-0.0836,-0.0865,-0.0865,-0.0865,-0.081,-0.0808,-0.0806,-0.0804,-0.0739,-0.0739,-0.0738,-0.0778,0,0,-0.0736,-0.0736,0,0,0,0,0,0,0,0,-0.0806,-0.0807,-0.0867,-0.0867,-0.0867,-0.0865,-0.0865,-0.0865,-0.081,-0.0808,-0.0806,-0.0804,-0.0739,-0.0738,-0.0738,0,0,0,0,0,0,0,0,0,0,0,0,0,0,0,-0.0867,-0.0867,0,-0.0865,-0.0865,-0.0865,-0.0809,-0.0808,-0.0806,-0.0805,-0.0739,-0.0738,-0.0738,0,0,0,0,0,0,0,0,0,0,0,0,0,0,0,0,0,0,0,0,0,0,0,0,0,0,0,0,0,0,0,0,0,0,0,0,0,0,0,0,0,0,0,0,0,0,0,0,0,0,0,0,0,0,0,0,0,0,0,0,0,0,0,0,0,0,0,0,0]}],[{"header":{"parameterUnit":"kt","parameterCategory":2,"dx":1,"dy":1,"la1":30.253999710083008,"la2":30.299108505249023,"lo1":-89.0895004272461,"lo2":-89.04439544677734,"nx":28,"ny":28,"refTime":"2022-09-20T09:00:00:Z","depth":"2","parameterNumber":3,"parameterNumberName":"V-component_of_CURRENTS"},"data":[0.03,0.0268,0.0259,0.0217,0.0196,0.0087,-0.0001,-0.0111,-0.0079,0.0034,0.0233,0.0568,0.111,0.1443,0.1708,0.1769,0.1548,0.1701,0.1575,0.1532,0.1491,0.1652,0.1747,0,0,0,0,0,0.0308,0.0282,0.0306,0.034,0.0354,0.0345,0.0301,0.0209,0.0038,0.009,0.0016,0.0592,0.0946,0.1149,0.1564,0.1773,0.1716,0.1664,0.1664,0.1636,0.1608,0.1674,0.1907,0.1904,0.1901,0.1898,0,0,0.0357,0.0369,0.0409,0.0406,0.0443,0.0456,0.0379,0.0339,0.0232,0.0049,0.0134,0.0177,0.0598,0.1026,0.1115,0.1259,0.1325,0.1465,0.145,0.1431,0.1497,0.1536,0.168,0.1677,0.1674,0.1672,0.167,0,0.0431,0.0435,0.0478,0.0512,0.0507,0.0536,0.0479,0.0419,0.0326,0.0242,0.0148,0.0105,0.0275,0.0586,0.0793,0.0924,0.1014,0.1115,0.0719,0.1315,0.1351,0.1376,0.1359,0.1449,0.1444,0.1441,0.1439,0.1437,0.0508,0.051,0.0578,0.0599,0.0604,0.056,0.0537,0.0471,0.0416,0.0294,0.0262,0.0203,0.0181,0.0296,0.0577,0.0728,0.0606,0.1006,0.1156,0.0847,0.0872,0.0872,0.0873,0.1391,0.1397,0.1401,0.1405,0,0.0546,0.0622,0.0636,0.068,0.0678,0.0632,0.0572,0.0525,0.0431,0.0347,0.0308,0.0288,0.0285,0.033,0.0389,0.0547,0.0633,0.0677,0.0884,0.0936,0.0856,0.086,0.0855,0.0858,0.0861,0.0863,0.0865,0,0.067,0.0652,0.0757,0.0753,0.0719,0.0723,0.063,0.0596,0.0521,0.0462,0.0451,0.0411,0.0449,0.0449,0.0526,0.0621,0.0553,0.077,0.0796,0.0982,0.1006,0.0736,0.0742,0.0686,0.0686,0.0686,0.0686,0,0.0744,0.0791,0.0803,0.081,0.0845,0.0788,0.076,0.0704,0.0659,0.0584,0.053,0.0529,0.0495,0.0537,0.0583,0.0616,0.06,0.0674,0.079,0.0797,0.0988,0.1014,0.0686,0.0686,0.0686,0.0686,0.0686,0,0.0841,0.0897,0.0896,0.0926,0.0914,0.0873,0.08,0.0767,0.072,0.0679,0.0641,0.0639,0.0633,0.0665,0.0687,0.0679,0.071,0.0744,0.0744,0.0834,0.0887,0.1055,0.1094,0.0773,0.0773,0.0774,0.0775,0,0.0916,0.0955,0.0994,0.0963,0.0975,0.0964,0.0925,0.0892,0.0851,0.0795,0.0808,0.0759,0.0798,0.0757,0.077,0.0797,0.0794,0.0814,0.0807,0.0807,0.0871,0.0864,0.1083,0.1091,0.0782,0.0781,0.0781,0,0.0974,0.108,0.1058,0.1073,0.1066,0.1051,0.1005,0.0976,0.0925,0.0887,0.0827,0.084,0.0821,0.0823,0.0841,0.0841,0.0813,0.0837,0.0838,0.0811,0.0775,0.0864,0.0867,0.0808,0.0807,0.0806,0.0787,0,0.1128,0.1126,0.1113,0.1127,0.1112,0.1079,0.108,0.1034,0.0987,0.0971,0.092,0.0928,0.0895,0.091,0.092,0.0895,0.0885,0.0908,0.0898,0.0886,0.0883,0.0878,0.0947,0.0948,0.0949,0.0949,0,0,0.1152,0.1178,0.1204,0.1202,0.1186,0.1176,0.1148,0.1127,0.1073,0.1044,0.1019,0.0974,0.0976,0.0964,0.0957,0.0972,0.095,0.0912,0.0905,0.09,0.0895,0.0891,0.0885,0.095,0.095,0.0951,0.0951,0,0.1222,0.1225,0.1219,0.1222,0.1206,0.1201,0.1184,0.115,0.1107,0.1062,0.1049,0.103,0.0981,0.0987,0.0987,0.098,0.0945,0.0963,0.0914,0.0911,0.0905,0.09,0.0894,0.0889,0.0952,0.0952,0.0952,0,0.1276,0.1294,0.1287,0.1294,0.1273,0.1259,0.1245,0.1192,0.1161,0.1142,0.1059,0.1051,0.1049,0.1016,0.0995,0.0993,0.0945,0.0961,0.0959,0.0936,0.0933,0.0927,0.0921,0.0984,0.0984,0.0983,0,0,0.1315,0.1318,0.1332,0.1304,0.1301,0.1273,0.1247,0.1211,0.1176,0.1142,0.1097,0.1062,0.1053,0.1021,0.1008,0.0981,0.0978,0.0961,0.096,0.0958,0.0936,0.0932,0.0927,0.0983,0.0983,0.0983,0,0,0.1317,0.1345,0.1344,0.1323,0.1311,0.1289,0.1245,0.1221,0.1163,0.1127,0.1098,0.1084,0.1038,0.1033,0.1027,0.0986,0.0998,0.0998,0.0965,0.0964,0.0962,0.0934,0.0996,0,0,0,0,0,0.1379,0.1359,0.136,0.1356,0.1327,0.1312,0.1302,0.1239,0.1197,0.1167,0.1123,0.1092,0.1028,0.1023,0.1015,0.0982,0.0973,0.0975,0.0977,0.093,0.0929,0.0927,0,0,0,0,0,0,0.1378,0.1378,0.136,0.1347,0.1339,0.1312,0.1273,0.1256,0.1197,0.1183,0.1106,0.1093,0.1072,0.1024,0.1018,0.0986,0.0998,0.0974,0.0975,0.0977,0.093,0.0928,0.0927,0,0,0,0,0,0.1377,0.1377,0.1345,0.1345,0.1338,0.1266,0.127,0.1255,0.1189,0.1158,0.114,0.1136,0.1075,0.1064,0.102,0.0989,0.1002,0.1,0.0975,0.0976,0.0977,0.0929,0,0,0,0,0,0,0.1376,0.1354,0.1341,0.1336,0.1321,0.1263,0.1252,0.1255,0.1165,0.1149,0.1192,0.1184,0.1078,0.1069,0.106,0.0991,0.1006,0.1003,0.1002,0.0976,0.0977,0.0977,0,0,0,0,0,0,0.1354,0.1351,0.1339,0.1312,0.1303,0.126,0.1251,0.1238,0.1164,0.1202,0.1193,0.119,0.1086,0.1072,0.1066,0.1049,0.1008,0.1006,0.1004,0.1004,0.0977,0.0977,0,0,0,0,0,0,0.1351,0.1348,0.1313,0.1306,0.1298,0.1234,0.1246,0.1211,0.1159,0.1206,0.1151,0.1147,0.1091,0.1083,0.107,0.1057,0.1051,0.1008,0.1007,0.1005,0.1005,0,0,0,0,0,0,0,0.1349,0.1389,0.1376,0.1301,0.1294,0.1291,0.1289,0.1288,0.1158,0.1155,0.1152,0.1149,0.102,0.1018,0.1015,0.1063,0,0,0.1008,0.1007,0,0,0,0,0,0,0,0,0.1389,0.1389,0.1375,0.1375,0.1374,0.1291,0.129,0.1288,0.1158,0.1155,0.1153,0.115,0.102,0.1018,0.1016,0,0,0,0,0,0,0,0,0,0,0,0,0,0,0,0.1375,0.1375,0,0.1291,0.129,0.1288,0.1157,0.1155,0.1153,0.1151,0.1019,0.1017,0.1016,0,0,0,0,0,0,0,0,0,0,0,0,0,0,0,0,0,0,0,0,0,0,0,0,0,0,0,0,0,0,0,0,0,0,0,0,0,0,0,0,0,0,0,0,0,0,0,0,0,0,0,0,0,0,0,0,0,0,0,0,0,0,0,0,0,0,0,0,0]}]],[[{"header":{"parameterUnit":"kt","parameterCategory":2,"dx":1,"dy":1,"la1":30.253999710083008,"la2":30.299108505249023,"lo1":-89.0895004272461,"lo2":-89.04439544677734,"nx":28,"ny":28,"refTime":"2022-09-20T09:00:00:Z","depth":"4","parameterNumber":2,"parameterNumberName":"U-component_of_CURRENTS"},"data":[-0.0979,-0.0989,-0.104,-0.0967,-0.0946,-0.0931,-0.096,-0.1016,-0.1011,-0.1116,-0.113,-0.1194,-0.121,-0.1301,-0.1215,-0.1215,-0.1498,-0.1264,-0.1259,-0.1845,-0.1888,-0.1927,-0.226,0,0,0,0,0,-0.1071,-0.1064,-0.1091,-0.1134,-0.1134,-0.1171,-0.1205,-0.1332,-0.1435,-0.1232,-0.1551,-0.1292,-0.1276,-0.1298,-0.1244,-0.1302,-0.1597,-0.1226,-0.1721,-0.1872,-0.192,-0.2228,0,0,0,0,0,0,-0.1209,-0.1191,-0.1319,-0.1356,-0.1374,-0.1337,-0.1472,-0.147,-0.164,-0.183,-0.1598,-0.1648,-0.1684,-0.1645,-0.1506,-0.1512,-0.1615,-0.1702,-0.1755,-0.1802,-0.2007,-0.1859,-0.1121,0,0,0,0,0,-0.1318,-0.1433,-0.1487,-0.1562,-0.1629,-0.1674,-0.1892,-0.1885,-0.2292,-0.245,-0.2278,-0.2242,-0.1902,-0.1956,-0.1847,-0.18,-0.2327,-0.2047,-0.208,-0.2565,-0.2479,-0.2395,-0.2443,-0.2102,-0.2108,-0.2112,-0.2114,0,-0.1471,-0.1529,-0.1712,-0.1731,-0.1846,-0.2142,-0.2254,-0.276,-0.2852,-0.3028,-0.2884,-0.2734,-0.2717,-0.2267,-0.2421,-0.23,-0.2347,-0.2168,-0.2686,-0.2561,-0.2455,-0.2494,-0.2529,-0.2153,-0.215,-0.2147,-0.2143,0,-0.1534,-0.1681,-0.1746,-0.1993,-0.2074,-0.2274,-0.2617,-0.2815,-0.3318,-0.3417,-0.3491,-0.3595,-0.3325,-0.3332,-0.3179,-0.3134,-0.2933,-0.275,-0.3105,-0.2991,-0.2587,-0.2606,-0.2216,-0.2202,-0.219,-0.218,-0.2172,0,-0.1669,-0.1717,-0.1927,-0.1962,-0.2106,-0.2366,-0.2684,-0.3018,-0.3455,-0.3548,-0.3985,-0.3892,-0.4121,-0.3879,-0.3878,-0.3469,-0.3587,-0.3368,-0.322,-0.3771,-0.3782,-0.3597,-0.359,-0.3714,-0.3719,-0.3724,-0.3728,0,-0.1729,-0.1817,-0.1908,-0.1926,-0.2133,-0.2259,-0.2537,-0.2951,-0.3125,-0.3706,-0.3755,-0.4114,-0.4147,-0.4165,-0.3965,-0.4101,-0.3716,-0.3833,-0.3386,-0.3349,-0.3623,-0.3607,-0.3734,-0.3735,-0.3736,-0.3738,-0.374,0,-0.1784,-0.1841,-0.1927,-0.2045,-0.2099,-0.2225,-0.257,-0.2797,-0.3236,-0.3435,-0.3811,-0.3923,-0.4192,-0.4259,-0.4199,-0.4303,-0.4178,-0.4082,-0.4055,-0.365,-0.3465,-0.3372,-0.3572,-0.3575,-0.3578,-0.358,-0.3583,0,-0.1787,-0.1866,-0.1914,-0.2015,-0.2076,-0.2201,-0.2394,-0.2575,-0.2849,-0.3166,-0.3425,-0.3725,-0.3848,-0.4084,-0.4232,-0.4165,-0.4181,-0.435,-0.3798,-0.3775,-0.3476,-0.3599,-0.4273,-0.3621,-0.3616,-0.3612,-0.361,0,-0.176,-0.1891,-0.1904,-0.1939,-0.2071,-0.2131,-0.2307,-0.2512,-0.2726,-0.2924,-0.3197,-0.3561,-0.3751,-0.3867,-0.405,-0.4159,-0.4195,-0.4089,-0.4078,-0.3775,-0.3949,-0.3665,-0.3611,-0.4263,-0.4265,-0.4267,-0.3636,0,-0.1759,-0.181,-0.1877,-0.1989,-0.2055,-0.2124,-0.2237,-0.2374,-0.2528,-0.2643,-0.295,-0.315,-0.3421,-0.3557,-0.3651,-0.3924,-0.3723,-0.3729,-0.3621,-0.3849,-0.3525,-0.3507,-0.3626,-0.3619,-0.3614,-0.3609,0,0,-0.1694,-0.1765,-0.1857,-0.1897,-0.1944,-0.2081,-0.2123,-0.2223,-0.235,-0.2453,-0.2474,-0.2876,-0.2988,-0.3311,-0.3464,-0.3491,-0.3346,-0.3555,-0.3759,-0.3777,-0.3793,-0.35,-0.3489,-0.3599,-0.3596,-0.3594,-0.3593,0,-0.1677,-0.1762,-0.182,-0.1864,-0.1963,-0.2029,-0.2076,-0.2169,-0.2217,-0.2398,-0.242,-0.2654,-0.2867,-0.2993,-0.3086,-0.3396,-0.3204,-0.3459,-0.3738,-0.3712,-0.3738,-0.376,-0.3479,-0.3473,-0.3579,-0.358,-0.358,0,-0.162,-0.1672,-0.171,-0.18,-0.1892,-0.1963,-0.1952,-0.2032,-0.2085,-0.2107,-0.2286,-0.2384,-0.2478,-0.2711,-0.2816,-0.2788,-0.3065,-0.3096,-0.3126,-0.3083,-0.3041,-0.3075,-0.3104,-0.2711,-0.2709,-0.2707,0,0,-0.1596,-0.1657,-0.1719,-0.1796,-0.1855,-0.1928,-0.198,-0.1965,-0.205,-0.2089,-0.2178,-0.2284,-0.2404,-0.2531,-0.2566,-0.2847,-0.2671,-0.3,-0.304,-0.3075,-0.3052,-0.302,-0.3054,-0.27,-0.2699,-0.2699,0,0,-0.1575,-0.1643,-0.1674,-0.1737,-0.1812,-0.186,-0.1938,-0.1955,-0.2053,-0.2061,-0.21,-0.212,-0.2309,-0.2337,-0.2233,-0.2616,-0.2433,-0.2457,-0.2667,-0.2717,-0.2757,-0.2704,-0.2129,0,0,0,0,0,-0.16,-0.164,-0.167,-0.169,-0.1786,-0.1865,-0.1879,-0.1891,-0.1917,-0.1952,-0.2037,-0.1998,-0.2273,-0.218,-0.221,-0.2424,-0.26,-0.2618,-0.2635,-0.2956,-0.3009,-0.3054,0,0,0,0,0,0,-0.1608,-0.163,-0.1669,-0.1718,-0.1742,-0.1862,-0.181,-0.1814,-0.1909,-0.1904,-0.1988,-0.1998,-0.1977,-0.2164,-0.2191,-0.2397,-0.2119,-0.2607,-0.2622,-0.2636,-0.2974,-0.3017,-0.3055,0,0,0,0,0,-0.1615,-0.1632,-0.1778,-0.1718,-0.1738,-0.1778,-0.1806,-0.1809,-0.1888,-0.1913,-0.1923,-0.1901,-0.1978,-0.2004,-0.218,-0.2387,-0.2101,-0.2111,-0.2617,-0.2629,-0.2639,-0.2995,0,0,0,0,0,0,-0.162,-0.1629,-0.1783,-0.1791,-0.1686,-0.1771,-0.1781,-0.1805,-0.1892,-0.1903,-0.182,-0.1815,-0.198,-0.2,-0.202,-0.2388,-0.2085,-0.2096,-0.2102,-0.2626,-0.2635,-0.2643,0,0,0,0,0,0,-0.1621,-0.1636,-0.1787,-0.1746,-0.1749,-0.1764,-0.1773,-0.1891,-0.1895,-0.1793,-0.1791,-0.1817,-0.1973,-0.1997,-0.2013,-0.2195,-0.2073,-0.2083,-0.209,-0.2094,-0.2633,-0.2641,0,0,0,0,0,0,-0.1628,-0.1641,-0.1743,-0.1745,-0.1748,-0.1834,-0.1872,-0.1979,-0.1828,-0.179,-0.1819,-0.1816,-0.1973,-0.1988,-0.2008,-0.2184,-0.2192,-0.2074,-0.208,-0.2085,-0.2088,0,0,0,0,0,0,0,-0.1634,-0.154,-0.1744,-0.1745,-0.1747,-0.1869,-0.187,-0.1872,-0.1827,-0.1824,-0.182,-0.1817,-0.2016,-0.2027,-0.2038,-0.2174,0,0,-0.2073,-0.2077,0,0,0,0,0,0,0,0,-0.1536,-0.1539,-0.1744,-0.1746,-0.1748,-0.1869,-0.187,-0.1871,-0.1826,-0.1824,-0.1821,-0.1818,-0.2019,-0.2028,-0.2037,0,0,0,0,0,0,0,0,0,0,0,0,0,0,0,-0.1744,-0.1746,0,-0.1869,-0.187,-0.1871,-0.1826,-0.1824,-0.1822,-0.1819,-0.2022,-0.2029,-0.2036,0,0,0,0,0,0,0,0,0,0,0,0,0,0,0,0,0,0,0,0,0,0,0,0,0,0,0,0,0,0,0,0,0,0,0,0,0,0,0,0,0,0,0,0,0,0,0,0,0,0,0,0,0,0,0,0,0,0,0,0,0,0,0,0,0,0,0,0,0]}],[{"header":{"parameterUnit":"kt","parameterCategory":2,"dx":1,"dy":1,"la1":30.253999710083008,"la2":30.299108505249023,"lo1":-89.0895004272461,"lo2":-89.04439544677734,"nx":28,"ny":28,"refTime":"2022-09-20T09:00:00:Z","depth":"4","parameterNumber":3,"parameterNumberName":"V-component_of_CURRENTS"},"data":[0.0116,0.006,-0.002,-0.007,-0.0097,-0.0268,-0.0417,-0.0533,-0.0463,-0.0491,-0.0198,-0.0124,0.0408,0.0164,0.0926,0.1011,0.1098,0.1547,0.1554,0.1642,0.1631,0.1622,0.1781,0,0,0,0,0,0.0034,0.0027,-0.0078,-0.0218,-0.0346,-0.042,-0.0676,-0.0811,-0.0903,-0.07,-0.0649,-0.029,0.0258,0.0428,0.0844,0.0831,0.13,0.1313,0.1378,0.1635,0.1623,0.1782,0,0,0,0,0,0,-0.0064,-0.0113,-0.0183,-0.0311,-0.046,-0.0597,-0.0751,-0.0778,-0.0794,-0.0658,-0.0643,-0.0236,-0.0034,0.0492,0.0842,0.1243,0.126,0.1329,0.1335,0.1327,0.1408,0.112,0.1257,0,0,0,0,0,-0.0144,-0.017,-0.0286,-0.0413,-0.0549,-0.0741,-0.0875,-0.0881,-0.0895,-0.0823,-0.0595,-0.0252,0.0106,0.057,0.0995,0.1284,0.1502,0.157,0.1562,0.1619,0.1412,0.1358,0.133,0.1579,0.1578,0.1577,0.1576,0,-0.0194,-0.0231,-0.0445,-0.0522,-0.0618,-0.0787,-0.091,-0.0963,-0.0953,-0.0809,-0.0684,-0.0283,-0.001,0.0584,0.0971,0.1402,0.1495,0.154,0.1601,0.1391,0.1346,0.1318,0.1292,0.1567,0.1568,0.1568,0.1569,0,-0.0203,-0.0301,-0.0448,-0.0675,-0.0761,-0.0861,-0.1031,-0.1082,-0.0949,-0.0797,-0.0584,-0.0252,0.0174,0.0529,0.1007,0.1171,0.1477,0.1549,0.1228,0.1184,0.1289,0.1266,0.1551,0.1555,0.1558,0.156,0.1562,0,-0.0249,-0.036,-0.0533,-0.0593,-0.0791,-0.092,-0.1049,-0.1058,-0.0974,-0.092,-0.0525,-0.0312,0.0272,0.0561,0.0859,0.1214,0.1258,0.1391,0.1378,0.1238,0.1213,0.1308,0.1288,0.1497,0.1499,0.15,0.1501,0,-0.0226,-0.0424,-0.0538,-0.0604,-0.0827,-0.0934,-0.1026,-0.1115,-0.1136,-0.0813,-0.0657,-0.0248,0.0117,0.0471,0.0884,0.0886,0.127,0.1225,0.1318,0.1304,0.1308,0.1286,0.1503,0.1503,0.1503,0.1504,0.1504,0,-0.0256,-0.034,-0.0483,-0.0708,-0.0744,-0.0853,-0.1007,-0.1091,-0.1044,-0.0938,-0.063,-0.0401,0.0054,0.0261,0.0704,0.0696,0.0884,0.0997,0.0995,0.1151,0.1022,0.0729,0.078,0.0777,0.0773,0.077,0.0767,0,-0.0225,-0.0337,-0.0391,-0.0558,-0.0626,-0.0692,-0.083,-0.0913,-0.0892,-0.082,-0.0579,-0.0401,-0.0198,0.0076,0.0347,0.0581,0.0743,0.066,0.0894,0.0894,0.0986,0.1091,0.0895,0.0722,0.0727,0.0732,0.0735,0,-0.0177,-0.0273,-0.0283,-0.0359,-0.0428,-0.0473,-0.0607,-0.0682,-0.0726,-0.0636,-0.0566,-0.0422,-0.014,-0.0059,0.015,0.0412,0.0634,0.06,0.0611,0.054,0.0945,0.1009,0.1039,0.0848,0.0858,0.0865,0.0703,0,-0.0209,-0.0253,-0.0255,-0.0302,-0.0346,-0.0382,-0.0429,-0.0473,-0.0451,-0.0446,-0.0398,-0.0235,-0.006,-0.0066,0.0072,0.0311,0.0273,0.0359,0.0526,0.0567,0.0454,0.0479,0.0204,0.0205,0.0206,0.0206,0,0,-0.0159,-0.0176,-0.0128,-0.0165,-0.0198,-0.0145,-0.0214,-0.0241,-0.0234,-0.0248,-0.0188,-0.0084,-0.0012,0.0076,0.0124,0.0087,0.0176,0.0307,0.0483,0.0512,0.0541,0.0443,0.0466,0.0208,0.0208,0.0209,0.0209,0,-0.0142,-0.0104,-0.012,-0.0135,-0.0121,-0.0123,-0.0121,-0.01,-0.0116,-0.0146,-0.0106,-0.0013,0.0017,0.0095,0.0134,0.0096,0.0234,0.0101,0.028,0.048,0.0508,0.0534,0.0443,0.0463,0.0211,0.0211,0.0211,0,-0.0112,-0.0084,-0.0088,-0.0066,-0.0039,-0.0084,0.0001,-0.0001,-0.0071,0.006,0.0015,0.0063,0.0122,0.0139,0.0159,0.025,0.0365,0.0298,0.0294,0.0395,0.061,0.0638,0.0663,0.0362,0.0363,0.0363,0,0,-0.0096,-0.0093,-0.0065,-0.0058,-0.0045,-0.0007,0.0003,0.0004,0.0032,0.0042,0.0093,0.0142,0.0139,0.0221,0.0188,0.0285,0.0367,0.0316,0.0309,0.0303,0.0398,0.061,0.0635,0.0365,0.0365,0.0365,0,0,-0.0086,-0.0053,-0.0038,-0.0028,-0.002,0.0014,0.0021,0.0046,0.0063,0.0068,0.0146,0.0161,0.0142,0.0231,0.0241,0.0297,0.0325,0.0324,0.0285,0.0277,0.027,0.0378,0.0325,0,0,0,0,0,-0.0055,-0.0058,-0.0045,-0.0037,0.0002,0.0007,0.001,0.0038,0.0081,0.0066,0.01,0.0174,0.0229,0.0239,0.0259,0.0293,0.0387,0.0383,0.0379,0.0336,0.0326,0.0318,0,0,0,0,0,0,-0.0051,-0.0043,-0.0044,-0.0008,0.0002,0.0008,0.0049,0.0056,0.0081,0.0085,0.016,0.0175,0.0212,0.0237,0.0253,0.0285,0.032,0.0385,0.0382,0.0379,0.0332,0.0325,0.0318,0,0,0,0,0,-0.0049,-0.0041,0.0017,-0.0008,0.0,0.0037,0.005,0.0055,0.0076,0.014,0.0155,0.0099,0.021,0.0228,0.0247,0.0276,0.031,0.0316,0.0383,0.0381,0.0378,0.0329,0,0,0,0,0,0,-0.0047,-0.0044,0.0019,0.0022,0.0,0.0036,0.0043,0.0055,0.0131,0.0144,0.0082,0.0085,0.0208,0.0223,0.0237,0.0268,0.0302,0.0307,0.0311,0.0381,0.0379,0.0377,0,0,0,0,0,0,-0.0048,-0.0042,0.002,0.0029,0.0033,0.0035,0.0041,0.0096,0.0134,0.0069,0.0073,0.0083,0.0217,0.0219,0.023,0.0312,0.0295,0.0301,0.0304,0.0307,0.038,0.0378,0,0,0,0,0,0,-0.0045,-0.004,0.0028,0.0031,0.0035,0.007,0.0087,0.0141,0.0091,0.0067,0.0093,0.0094,0.0215,0.0225,0.0225,0.0302,0.0309,0.0295,0.0299,0.0302,0.0303,0,0,0,0,0,0,0,-0.0043,-0.008,0.0004,0.0033,0.0036,0.0053,0.0053,0.0054,0.0091,0.0092,0.0093,0.0094,0.0265,0.0271,0.0277,0.0294,0,0,0.0295,0.0298,0,0,0,0,0,0,0,0,-0.0081,-0.008,0.0004,0.0005,0.0006,0.0053,0.0053,0.0053,0.0091,0.0092,0.0093,0.0094,0.0266,0.0271,0.0276,0,0,0,0,0,0,0,0,0,0,0,0,0,0,0,0.0004,0.0005,0,0.0053,0.0053,0.0053,0.0091,0.0092,0.0093,0.0093,0.0268,0.0271,0.0275,0,0,0,0,0,0,0,0,0,0,0,0,0,0,0,0,0,0,0,0,0,0,0,0,0,0,0,0,0,0,0,0,0,0,0,0,0,0,0,0,0,0,0,0,0,0,0,0,0,0,0,0,0,0,0,0,0,0,0,0,0,0,0,0,0,0,0,0,0]}]]]